Wind_Speed
21 22 23 21 23 24 22 19 20 21 23 20 17 14 13 12 11 10 3 11 9 8 7 9 9 8 5 6 5 7 6 7 7 8 13 11 10 9 13 15 17 20 20
23 22 22 24 24 22 20 19 19 17 18 17 15 13 13 14 12 9 8 10 10 8 8 7 8 8 6 4 7 6 6 10 18 11 11 7 6 10 13 19 19 18 20
24 24 23 23 22 20 20 19 18 16 15 15 14 15 15 14 12 12 9 10 8 7 7 7 7 7 5 3 5 8 7 12 19 15 7 8 6 18 17 19 16 19 20
25 24 23 22 22 20 20 19 17 16 15 14 13 13 15 17 14 11 9 11 10 9 8 7 5 4 4 4 4 5 8 13 19 19 13 12 11 19 20 22 19 21 23
24 24 22 22 21 19 18 17 17 16 15 15 14 12 12 21 14 9 14 10 14 12 7 6 4 5 4 1 4 7 5 19 18 17 12 10 12 14 17 17 22 25 23
25 24 22 20 19 18 19 18 17 16 15 16 15 12 17 15 12 13 9 11 14 13 8 5 2 5 7 6 4 11 11 18 18 15 12 13 12 18 24 27 27 22 6
23 22 20 20 19 18 14 18 16 14 14 15 12 11 11 11 9 8 8 8 13 13 10 5 4 5 7 5 5 7 13 15 17 19 18 17 18 25 28 26 21 17 16
21 21 21 21 19 16 17 16 15 15 16 14 11 12 12 9 8 7 9 7 9 12 9 5 4 6 10 10 12 13 16 15 14 15 18 20 23 29 29 33 25 26 26
20 20 21 25 22 21 19 16 16 15 13 12 12 14 12 9 8 9 8 8 13 9 8 4 4 6 12 13 15 19 17 16 10 10 13 16 23 29 31 34 27 28 15
21 20 20 24 26 23 21 15 14 15 12 11 12 13 12 10 11 10 8 13 12 9 6 5 6 7 10 13 17 20 22 21 20 19 21 21 22 26 29 25 32 26 19
21 20 16 27 26 22 18 15 15 15 13 13 15 14 12 11 12 9 7 11 10 10 7 5 7 10 15 10 15 21 24 22 22 21 23 23 25 24 22 25 24 27 23
21 21 23 26 19 18 17 14 14 15 14 13 15 14 14 13 10 10 8 11 9 9 8 7 9 15 15 13 16 24 24 22 23 23 21 20 20 21 21 20 18 24 14
19 27 22 24 20 17 15 14 13 15 15 13 13 13 13 10 11 10 9 10 7 10 10 7 11 20 15 16 25 22 23 24 22 18 18 18 21 20 20 17 18 21 8
28 27 22 22 20 17 12 14 15 14 14 15 12 15 14 16 12 10 12 12 10 10 10 13 20 19 14 21 25 18 19 21 21 19 19 20 21 24 21 21 19 21 8
29 26 22 22 19 14 11 7 9 7 4 14 12 17 17 12 14 13 13 12 13 12 16 16 19 19 21 21 19 17 17 20 22 21 22 21 20 22 20 17 22 18 9
21 24 22 21 18 17 15 15 13 11 10 10 11 9 11 11 15 13 13 13 13 17 13 15 15 17 18 18 16 18 18 17 19 22 21 19 17 20 19 16 17 16 15
19 20 25 22 21 18 18 15 12 13 13 13 14 11 12 15 13 15 15 16 16 13 14 13 15 15 16 18 18 16 15 17 20 19 20 20 19 18 19 17 12 15 16
17 18 21 21 25 21 19 15 16 15 14 12 16 14 12 12 12 15 19 21 14 12 14 14 15 17 17 18 17 18 16 17 17 17 20 22 22 21 19 18 17 17 17
17 16 18 20 18 25 21 20 16 14 14 16 14 14 13 13 14 19 18 12 13 10 15 15 17 19 18 17 19 15 19 18 20 18 20 20 21 22 20 18 17 18 20
19 19 15 21 22 22 17 18 15 17 17 16 16 14 17 19 17 19 10 9 10 11 11 16 19 19 19 19 20 17 15 17 18 17 21 21 21 21 20 20 20 20 24
19 17 9 23 19 21 18 16 16 16 18 17 17 20 22 15 14 13 12 10 12 13 12 19 17 20 18 17 15 15 14 15 18 17 17 20 18 17 18 20 24 24 24
21 17 15 16 19 22 23 20 18 19 18 21 20 22 24 16 16 15 13 13 13 13 11 18 19 18 19 19 16 15 13 14 15 15 17 16 17 18 20 21 21 19 17
24 19 16 12 17 22 29 22 19 18 19 24 23 24 25 16 12 18 15 12 13 15 16 17 17 21 22 21 21 19 17 17 19 20 21 22 21 22 23 23 24 23 23
26 21 17 11 22 17 13 17 17 28 27 24 23 20 18 16 16 16 20 11 8 10 7 7 5 7 11 13 11 13 12 14 13 20 25 22 18 19 21 23 20 18 22
16 26 20 13 25 19 19 17 11 23 27 25 23 19 26 28 32 33 33 33 28 30 29 28 25 23 21 17 13 9 6 8 7 4 3 8 7 15 21 24 24 26 24
16 20 15 24 27 28 25 28 30 29 29 29 29 29 26 27 29 29 32 30 33 30 27 26 23 22 22 22 20 16 10 4 5 7 9 8 9 13 17 20 21 22 21
Wind_Direction
168 174 165 170 142 139 148 150 144 144 154 165 174 181 179 172 180 195 201 175 182 192 203 209 209 213 223 232 223 200 211 156 114 105 119 123 138 143 151 173 162 168 171
163 164 160 138 134 141 144 142 139 145 153 172 173 182 178 184 176 188 192 181 187 183 197 197 197 204 202 210 224 214 180 182 145 129 142 135 131 137 143 139 156 168 168
160 150 140 135 139 147 146 143 155 163 174 175 175 170 181 171 172 197 191 180 180 189 188 192 186 190 187 194 230 213 208 177 161 140 129 143 122 146 143 143 150 153 160
145 137 138 142 146 149 151 155 166 168 172 158 162 175 184 180 182 191 212 167 147 152 155 168 168 151 158 175 238 217 219 161 141 132 139 138 126 143 145 136 132 147 152
140 139 145 144 146 151 152 166 166 168 164 162 177 182 190 164 170 200 169 162 159 151 163 165 189 210 215 205 202 215 231 152 129 132 140 138 136 139 136 131 119 128 137
142 140 143 144 148 160 169 165 163 164 173 182 170 121 122 140 146 153 149 167 170 173 165 165 189 226 224 229 233 198 193 149 136 153 140 148 147 138 142 139 134 132 109
140 142 147 159 158 151 162 161 163 164 149 139 149 139 113 131 145 152 150 165 182 175 185 190 224 229 198 191 150 117 148 159 147 158 155 157 151 156 148 140 142 134 128
144 156 162 155 149 154 160 169 167 164 158 156 157 147 138 147 154 165 157 152 166 180 181 202 237 206 183 173 141 114 115 125 131 150 158 165 169 161 157 150 143 129 134
157 162 169 152 160 161 171 182 164 157 156 160 160 153 146 150 159 158 147 151 149 159 156 159 149 152 162 154 146 126 121 121 131 138 155 165 167 162 151 151 135 133 127
161 169 176 146 157 162 171 165 157 161 157 157 151 151 147 150 154 152 137 144 141 140 159 151 149 157 162 151 152 129 121 128 128 126 133 144 159 161 160 162 154 148 142
163 170 151 132 137 150 160 160 165 161 152 157 147 145 148 155 155 151 136 159 157 152 152 164 157 155 151 146 153 144 139 137 131 132 135 142 148 154 157 158 155 157 153
167 139 120 127 127 144 148 154 154 145 143 151 143 138 131 143 154 144 123 139 143 154 163 154 165 163 154 138 146 146 143 136 133 135 134 137 142 156 156 153 157 162 145
145 123 127 126 138 148 150 149 149 155 152 156 159 147 139 143 145 143 139 139 132 145 140 151 160 158 153 140 143 142 138 140 136 138 141 145 153 153 156 155 160 165 154
128 129 135 130 139 148 157 158 160 176 179 175 172 152 155 150 144 145 141 129 124 120 122 132 144 142 145 148 144 137 134 138 141 143 146 150 155 154 161 169 173 178 197
131 134 139 139 151 144 130 154 160 131 170 171 160 155 154 167 161 167 158 148 140 138 126 132 146 144 141 145 140 138 141 144 145 148 147 149 155 168 168 172 178 178 195
135 140 150 157 158 146 132 99 117 113 111 141 153 141 182 172 163 168 160 150 144 131 130 135 138 147 147 148 147 147 154 149 151 157 159 160 164 172 176 176 186 206 224
152 152 163 167 157 161 144 145 124 103 109 114 127 114 129 140 151 155 151 143 137 136 128 136 144 149 148 148 148 148 151 154 165 162 171 173 172 170 183 187 205 210 226
163 166 161 160 154 150 147 149 148 157 144 112 121 120 121 133 149 155 154 146 136 136 139 141 140 147 154 159 161 161 159 170 171 176 179 177 179 178 183 197 212 215 223
169 182 169 169 143 149 150 147 156 156 146 131 126 122 129 136 142 144 142 144 154 150 151 155 158 161 159 169 179 181 185 187 183 189 181 182 182 192 194 204 217 224 234
169 190 176 143 138 146 155 160 151 150 149 155 153 141 138 136 145 158 159 162 171 177 172 166 174 171 176 176 179 185 200 198 199 194 186 184 190 196 202 211 221 228 238
172 194 180 143 161 163 164 160 154 159 160 156 156 157 156 155 159 172 185 187 199 188 191 176 170 180 181 179 190 202 211 203 196 188 191 197 200 203 218 232 232 236 245
165 186 192 194 173 159 161 171 171 171 167 153 147 161 166 165 163 178 196 193 197 194 192 172 174 175 183 188 190 191 193 193 192 197 201 203 210 222 230 243 251 253 244
153 175 199 203 169 152 166 172 177 178 140 133 141 160 182 196 188 175 181 203 208 200 192 190 182 183 188 188 194 198 203 205 211 210 210 214 216 222 230 238 242 241 244
151 170 211 219 136 148 165 176 175 147 134 138 146 159 179 202 210 208 177 185 90 111 187 175 150 141 127 140 158 194 218 229 239 229 224 223 231 233 241 258 271 263 255
166 164 205 237 155 169 169 160 165 137 136 139 142 118 81 78 79 80 95 91 86 91 91 90 87 86 87 83 84 86 101 196 233 201 192 226 269 259 256 260 264 263 268
47 163 98 83 81 76 79 91 90 88 88 91 94 94 85 76 75 79 81 83 83 76 74 70 70 68 63 56 46 37 24 341 332 333 348 348 342 338 333 335 338 338 333
Height
646 653 657 661 663 668 675 681 685 691 696 702 706 709 712 715 718 721 723 724 727 730 732 733 734 735 737 738 740 742 743 743 745 752 753 757 759 762 764 767 772 775 780
647 652 656 659 663 671 677 682 687 693 697 702 705 708 711 715 718 720 722 724 726 729 731 733 733 734 735 737 739 741 742 743 744 751 756 758 760 762 765 767 772 776 780
647 651 656 660 666 673 679 684 690 694 698 701 703 706 710 713 717 719 721 723 726 728 730 732 732 732 734 735 738 739 742 742 744 749 755 759 761 763 767 770 774 777 782
645 651 657 663 669 675 681 686 691 695 697 699 703 706 709 711 715 718 721 723 726 727 729 731 732 732 733 734 736 739 740 742 745 749 755 759 762 765 767 770 775 780 783
646 653 660 665 671 677 682 687 690 693 696 699 703 705 707 710 713 716 720 723 724 726 729 730 731 732 734 735 735 737 740 742 745 750 755 759 762 765 768 772 777 781 787
647 654 661 667 673 679 683 686 690 693 695 698 702 704 706 710 713 716 719 722 723 725 728 729 730 731 733 735 736 737 740 741 745 750 754 757 761 765 769 772 777 783 790
649 656 663 668 674 679 683 686 689 692 694 698 702 705 707 711 714 716 718 720 722 724 726 728 729 730 732 734 736 737 738 741 744 749 753 757 760 763 767 773 780 783 788
651 657 662 668 675 680 684 687 689 692 695 699 703 705 709 711 713 716 717 719 722 723 725 727 728 730 731 734 735 738 741 744 748 749 753 756 759 764 767 772 779 785 793
651 656 662 667 674 679 683 686 689 693 697 701 704 707 709 712 714 716 718 720 721 723 725 727 728 729 731 734 736 739 742 746 749 751 754 757 761 766 768 773 782 787 795
651 656 660 664 672 677 682 686 690 694 697 700 704 707 709 712 715 717 719 720 721 724 726 727 729 730 732 735 737 740 744 748 750 754 757 762 766 769 773 777 780 786 793
650 655 658 663 671 677 682 687 692 694 697 701 704 707 710 712 715 717 719 720 721 724 727 728 730 731 734 736 739 741 745 750 753 757 760 764 768 772 776 779 784 787 792
649 653 660 665 674 679 683 688 692 694 698 701 705 708 711 713 715 717 719 721 722 724 726 728 730 732 735 738 740 744 747 752 756 760 764 768 771 775 779 783 786 790 793
648 655 663 667 675 680 685 688 691 695 698 701 704 707 711 714 716 718 720 722 723 725 726 728 729 733 737 740 743 746 750 753 758 762 766 770 773 777 781 784 788 792 794
650 657 665 669 676 681 686 690 692 695 697 700 702 706 709 713 716 719 721 722 724 726 727 729 732 736 739 741 746 750 752 755 759 764 767 771 775 779 782 784 787 792 794
651 658 666 671 677 683 687 691 694 695 697 698 702 704 708 712 715 718 720 722 725 727 729 732 735 738 741 744 748 751 754 757 760 764 768 771 775 779 782 784 788 791 793
650 659 666 672 677 683 688 692 695 697 698 700 703 706 708 711 714 718 720 723 725 728 732 734 737 739 743 746 749 753 756 759 762 765 769 773 775 778 781 785 788 790 793
651 657 663 669 676 681 685 691 696 700 701 702 704 707 709 711 715 718 721 724 728 730 732 735 738 741 743 747 750 754 757 760 763 766 770 773 776 778 781 785 787 789 790
652 657 662 665 672 678 682 688 692 697 701 705 707 708 711 713 716 719 723 726 729 732 733 736 738 741 745 748 751 755 758 760 763 766 768 771 775 777 781 784 785 786 786
652 656 659 664 669 676 681 686 690 693 697 703 707 710 713 717 720 722 726 727 729 731 734 736 739 742 745 748 751 754 757 759 761 764 767 770 773 776 779 780 781 782 782
651 655 658 662 668 675 679 684 686 691 697 701 705 711 715 720 723 725 727 729 730 732 734 735 738 741 744 747 749 753 756 758 760 762 764 767 770 773 775 776 777 778 778
649 653 658 662 666 671 677 680 684 688 693 698 703 708 714 720 723 725 726 727 729 731 732 734 737 740 743 746 749 752 753 755 758 760 762 765 768 770 771 773 773 772 773
646 652 657 660 662 667 673 678 682 685 689 694 701 707 713 716 721 723 723 725 726 729 731 733 736 739 742 745 747 750 752 754 756 758 761 763 764 766 767 767 767 767 766
643 651 654 656 659 664 670 674 679 683 687 692 699 705 711 714 717 719 720 721 724 726 729 731 734 737 739 742 746 748 750 752 753 755 756 758 759 760 761 762 761 761 761
641 649 653 655 659 664 668 671 674 680 685 692 697 703 708 711 712 716 717 719 724 724 728 733 734 736 739 742 744 746 747 749 750 750 751 753 754 755 756 756 754 755 754
642 646 652 655 657 662 666 671 674 680 684 690 697 705 714 714 712 716 718 723 725 727 734 735 737 737 739 743 744 745 746 746 747 747 748 749 750 751 751 750 750 749 749
646 647 654 658 661 664 669 674 680 687 693 699 704 710 716 717 720 722 724 727 730 735 736 737 739 741 742 742 742 743 743 743 744 745 746 747 748 748 747 746 746 746 747